Погода в Дубае

Объединённые Арабские Эмираты     25°11′42″N   55°16′42″E
темп.,
°C
ветер,
м/с
пор.,
м/с
влажн.,
%
обл.,
%
осадки,
мм/ч
давл.,
гПа
погр.,
м
9 декабря, чт
чт901:00+23в333515 0.0 1018128
04:00+22в3335100 0.0 1018153
07:00+22в333688 0.0 1019141
10:00+25в3331100 0.0 1021237
13:00+26сз222996 0.0 1018510
16:00+26сз44436 0.0 1017486
19:00+25с45501 0.0 1019406
22:00+25св4447100 0.0 1020484
10 декабря, пт
пт1001:00+22в334999 0.0 1019153
04:00+22в3342100 0.0 1018136
07:00+21вюв3342100 0.0 1020125
10:00+24вюв223386 0.0 1022238
13:00+25сз323797 0.0 1020435
16:00+25сз55505 0.0 1019485
19:00+25сз445194 0.0 1020722
22:00+24ссз2352100 0.0 1019762
11 декабря, сб
сб1101:00+23ююв1253100 0.0 1019439
04:00+22зюз12560 0.0 1018482
07:00+22ю125915 0.0 1019489
10:00+24юз22565 0.0 1021655
13:00+24з446099 0.0 1019862
16:00+24зсз33625 0.0 10171051
19:00+24зсз33624 0.0 1019856
22:00+24сз336038 0.0 1019861
12 декабря, вс
вс1201:00+23сз22605 0.0 1018879
04:00+23зсз23600 0.0 10181054
07:00+22юз12590 0.0 1019971
10:00+24зюз125426 0.0 1020724
13:00+24зсз445381 0.0 10181049
16:00+24сз335398 0.0 10171039
19:00+23сз235692 0.0 1017866
22:00+23сз3358100 0.0 1018919
13 декабря, пн
пн1301:00+23ююв015877 0.0 1016744
04:00+21юв22655 0.0 1016365
07:00+20юв22700 0.0 1018153
10:00+22юв11615 0.0 1019297
13:00+23ссз33560 0.0 1017549
16:00+24ссз54530 0.0 1015516
19:00+24ссв5554100 0.0 1016529
22:00+24св3353100 0.0 1017505